This is the latest recevied weather packets stored in our database for station/object KF0FSA. If no packets are shown the sender has not sent any weather packets the latest 1 day(s).
| Time | Temp. | Humidity | Pressure | Rain* | Wind** | Luminosity | Snow |
|---|---|---|---|---|---|---|---|
| 1778045389 | 2.22° C | 63% | 962.1 hPa | 0 mm | 0 m/s | 0 W/m² | - |
| 1778045085 | 2.22° C | 62% | 962.1 hPa | 0 mm | 0 m/s | 0 W/m² | - |
| 1778044785 | 2.78° C | 60% | 961.9 hPa | 0 mm | 0.45 m/s, 0° | 0 W/m² | - |
| 1778044486 | 2.78° C | 60% | 961.8 hPa | 0 mm | 0.89 m/s, 307° | 0 W/m² | - |
| 1778044185 | 2.78° C | 59% | 961.7 hPa | 0 mm | 0.89 m/s, 0° | 0 W/m² | - |
| 1778043886 | 2.78° C | 59% | 961.6 hPa | 0 mm | 0.89 m/s, 311° | 0 W/m² | - |
| 1778043710 | 3.33° C | 59% | 961.7 hPa | 0 mm | 1.34 m/s, 312° | 0 W/m² | - |
| 1778043296 | 3.33° C | 59% | 961.7 hPa | 0 mm | 1.34 m/s, 351° | 0 W/m² | - |
| 1778042986 | 3.33° C | 58% | 961.8 hPa | 0 mm | 1.34 m/s, 309° | 0 W/m² | - |
| 1778042810 | 3.33° C | 58% | 961.8 hPa | 0 mm | 1.34 m/s, 302° | 0 W/m² | - |
| 1778042384 | 3.33° C | 58% | 961.8 hPa | 0 mm | 1.34 m/s, 317° | 0 W/m² | - |
| 1778042081 | 3.33° C | 57% | 961.8 hPa | 0 mm | 1.34 m/s, 297° | 0 W/m² | - |
| 1778041781 | 3.89° C | 57% | 961.7 hPa | 0 mm | 1.79 m/s, 294° | 0 W/m² | - |
| 1778041601 | 3.89° C | 57% | 961.8 hPa | 0 mm | 1.79 m/s, 330° | 0 W/m² | - |
| 1778041177 | 3.33° C | 56% | 961.7 hPa | 0 mm | 1.34 m/s, 295° | 0 W/m² | - |
| 1778040877 | 3.33° C | 56% | 961.9 hPa | 0 mm | 1.34 m/s, 316° | 0 W/m² | - |
| 1778040578 | 3.33° C | 57% | 962 hPa | 0 mm | 1.34 m/s, 231° | 0 W/m² | - |
| 1778040400 | 3.33° C | 57% | 962 hPa | 0 mm | 1.34 m/s, 319° | 0 W/m² | - |
| 1778039976 | 3.33° C | 56% | 962.1 hPa | 0 mm | 1.34 m/s, 290° | 0 W/m² | - |
| 1778039675 | 3.89° C | 56% | 962.1 hPa | 0 mm | 0.89 m/s, 312° | 0 W/m² | - |
| 1778039375 | 3.89° C | 55% | 962.1 hPa | 0 mm | 0.89 m/s, 311° | 0 W/m² | - |
| 1778039075 | 3.89° C | 55% | 962.1 hPa | 0 mm | 0.89 m/s, 0° | 0 W/m² | - |
| 1778038777 | 3.89° C | 54% | 961.9 hPa | 0 mm | 0.89 m/s, 330° | 0 W/m² | - |
| 1778038477 | 4.44° C | 54% | 961.9 hPa | 0 mm | 0.45 m/s, 310° | 0 W/m² | - |
| 1778038301 | 4.44° C | 54% | 961.9 hPa | 0 mm | 0.45 m/s, 304° | 0 W/m² | - |
* Rain latest hour (hover to see other rain measurements)
** Current wind speed in m/s (hover to see current wind gust speed)